LEGION 2

Last updated on Fri Jul 10 2026 00:02:50 GMT+0000 (Coordinated Universal Time)

1 59626U 24081B 26190.29219321 .00002645 00000+0 13798-3 0 9997 2 59626 97.5011 268.0114 0009919 256.7429 103.2698 15.16798049120897
UTC large
Height (km)
Speed (km/s)
/
Latitude / Longitude
Inclination (degrees)
Orbital Period (minutes)
Azimuth
Elevation
Range (km)
Doppler Factor

Next 0 passes for location: London (51.5072 / 0.1276)

No passes found over London.
LEGION 2